STARLINK-33603, 63282

Orbit data source: Space-Track

STARLINK-33603, 63282 is a payload satellite owned by SpaceX/Seattle (US) in LEO that was launched on Sat, 15 Mar 2025 UTC via an FALCON 9 launch vehicle from the Air Force Eastern Test Range (AFETR). Payload-class satellites include a variety of spacecraft equipped with specific instruments for various scientific and technological missions. These include communications satellites like Starlink; space stations such as the ISS; scientific satellites like the Hubble; Earth observation satellites from companies like Planet Labs, Umbra, and HawkEye 360; GPS; miniature CubeSats for education and research; and military/defense satellites.

Loading next visibility...
Identifier
63282, 2025-053T
Orbit
LEO
Country
Flag of USUS
Related business
Manufacturer
SpaceX/Seattle
Mission
Operational Commercial Communications
Bus & Motor
STARLINK V2MO, Unknown motor
Mass
575 kg wet, ~530 kg dry
Launch date (UTC)
2025-03-15 (1 year ago)
Launch vehicle
FALCON 9
Launch site
Air Force Eastern Test Range (AFETR)
Object type
Payload
Rocket body
Debris
Shape & HBR
Box + 2 Pan, 17.7 m
Radar Cross Section
36.964 m², Large (>1 m²)

Expand to show TLE details & history
Last TLE update: 21 hours ago

TLE from 21 hours ago
0 STARLINK-33603
1 63282U 25053T   26170.97855709  .00015444  00000-0  56926-3 0  9991
2 63282  43.0053  24.3922 0001649 255.1473 104.9196 15.27597908 71839
Epoch: 2026-06-19T23:29Z
TLE epoch observation values (Epoch: 2026-06-19T23:29:07.332Z)
Latitude
-0.00003°
Longitude
123.91184°
Altitude
483.063 km
Speed
7.626 km/s
True Right ascension
01h 37m 34s
True Declination
0° 00' 00"
Sunlit
Object was in daylight at epoch
Visualization orbit readout
Latitude
Unknown
Longitude
Unknown
Altitude
Unknown
Speed
Unknown
Apparent Right ascension
Unknown
Apparent Declination
Unknown
Sunlit
N/A
Visualization observer readout
Local Sidereal Time
07:11:50
Azimuth
Unknown
Elevation
Unknown
Doppler factor
Unknown
Orbital elements
Apogee altitude
486.071 km
Perigee altitude
483.808 km
Semi-major axis
6,863.077 km
Eccentricity
0.00016
Inclination
43.0053°
RAAN
24.3922°
Arg. of periapsis
255.1473°
True anomaly
104.93786°
Mean anomaly
104.9196°
Eccentric anomaly
104.92873°
Mean motion
3.81738 °/min
Orbital period
94.31 mins
BSTAR
0.00056926
Loading maneuver chart data...
Computing Atmospheric mass density...
Loading historical data...
Loading historical data...
Loading historical data...
Loading historical data...
Loading historical data...
Loading historical data...
Loading historical data...

Documentation

Showing up to 5 results
|